1500822000.88,29167,23.38,74254.0,9.13,5.67,5.77,0,*7C
1500822002.08,29168,23.38,74252.3,9.13,5.67,5.73,0,*77
1500822003.31,29169,23.38,74250.0,9.13,5.73,5.77,0,*77
1500822004.55,29170,23.38,74252.3,9.11,5.51,5.73,0,*79
1500822005.77,29171,23.38,74248.0,9.13,5.51,5.77,0,*7E
1500822006.99,29172,23.38,74248.5,9.13,5.55,5.89,0,*78
1500822008.19,29173,23.38,74248.0,9.13,5.41,5.77,0,*7D
1500822009.39,29174,23.38,74248.0,9.13,5.37,5.85,0,*76
1500822010.63,29175,23.38,74248.3,9.15,5.55,6.13,0,*79
1500822011.83,29176,23.38,74248.3,9.13,5.51,6.11,0,*7A
1500822013.03,29177,23.38,74254.5,9.13,5.55,6.21,0,*7C
1500822014.25,29178,23.38,74248.3,9.13,5.51,6.35,0,*72
1500822015.44,29179,23.38,74248.3,9.13,5.27,6.07,0,*73
1500822016.64,29180,23.38,74250.0,9.15,5.23,6.11,0,*70
1500822017.84,29181,23.38,74248.3,9.13,5.27,6.21,0,*70
1500822019.04,29182,23.38,74248.8,9.11,5.11,6.33,0,*77
1500822020.25,29183,23.38,74250.5,9.13,5.19,6.43,0,*7B
1500822021.43,29184,23.38,74248.8,9.13,5.07,6.33,0,*74
1500822022.63,29185,23.38,74250.5,9.13,4.85,6.43,0,*79
1500822023.88,29186,23.38,74248.0,9.15,4.97,6.39,0,*72
1500822025.11,29187,23.38,74250.3,9.15,4.71,6.25,0,*76
1500822026.33,29188,23.38,74252.3,9.15,4.63,6.25,0,*7A
1500822027.55,29189,23.38,74252.5,9.17,4.71,6.25,0,*7A
1500822028.77,29190,23.38,74252.8,9.15,4.59,6.25,0,*7A
1500822030.02,29191,23.38,74248.5,9.15,4.63,6.35,0,*73
1500822031.25,29192,23.38,74248.3,9.15,4.63,6.21,0,*75
1500822032.47,29193,23.38,74250.0,9.15,4.85,6.47,0,*7C
1500822033.68,29194,23.38,74250.0,9.17,4.85,6.35,0,*7C
1500822034.93,29195,23.38,74250.3,9.15,5.01,6.47,0,*77
1500822036.13,29196,23.38,74250.8,9.17,5.23,6.57,0,*77
1500822037.34,29197,23.38,74252.5,9.15,5.41,6.69,0,*7D
1500822038.54,29198,23.38,74252.5,9.17,5.33,6.61,0,*7D
1500822039.74,29199,23.38,74254.3,9.17,5.11,6.35,0,*7D
1500822040.97,29200,23.38,74250.8,9.17,5.01,6.13,0,*7B
1500822042.15,29201,23.38,74252.5,9.17,5.07,6.25,0,*79
1500822043.35,29202,23.38,74252.3,9.17,5.11,6.39,0,*70
1500822044.56,29203,23.38,74252.3,9.17,5.19,6.47,0,*70
1500822045.77,29204,23.38,74254.8,9.17,5.23,6.47,0,*7E
1500822046.97,29205,23.38,74256.0,9.15,5.19,6.25,0,*70
1500822048.15,29206,23.38,74250.8,9.17,5.11,6.25,0,*79
1500822049.36,29207,23.38,74254.8,9.17,5.19,6.35,0,*71
1500822050.58,29208,23.38,74250.8,9.17,5.51,6.47,0,*77
1500822051.81,29209,23.38,74254.3,9.17,5.55,6.47,0,*72
1500822053.0,29210,23.38,74254.8,9.17,5.45,6.39,0,*72
1500822054.19,29211,23.38,74256.0,9.17,5.23,5.99,0,*7A
1500822055.41,29212,23.38,74252.8,9.19,5.23,5.85,0,*7A
1500822056.63,29213,23.38,74252.0,9.15,5.19,5.77,0,*73
1500822057.84,29214,23.38,74252.8,9.17,5.19,5.77,0,*76
1500822059.06,29215,23.38,74254.0,9.15,5.19,5.93,0,*7F
1500822060.27,29216,23.38,74258.3,9.17,4.89,5.55,0,*7C
1500822061.45,29217,23.38,74252.5,9.17,4.53,5.41,0,*7F
1500822062.7,29218,23.38,74248.8,9.15,4.59,5.55,0,*7D
1500822063.95,29219,23.38,74254.5,9.15,4.75,5.77,0,*72
1500822065.17,29220,23.38,74252.5,9.15,4.85,5.81,0,*7E
1500822066.4,29221,23.38,74254.0,9.17,4.75,5.77,0,*7B
1500822067.62,29222,23.38,74250.8,9.15,4.85,5.77,0,*75
1500822068.83,29223,23.38,74256.0,9.15,4.81,5.77,0,*70
1500822070.03,29224,23.38,74254.0,9.15,4.41,5.29,0,*70
1500822071.23,29225,23.38,74252.3,9.15,4.41,5.41,0,*7F
1500822072.48,29226,23.38,74252.8,9.15,4.59,5.51,0,*74
1500822073.68,29227,23.38,74250.5,9.15,4.49,5.41,0,*75
1500822074.87,29228,23.38,74252.0,9.17,4.15,5.19,0,*7C
1500822076.09,29229,23.38,74254.8,9.15,4.01,5.11,0,*72
1500822077.31,29230,23.38,74254.8,9.13,4.37,5.51,0,*7D
1500822078.49,29231,23.38,74252.3,9.13,4.57,5.67,0,*7F
1500822079.7,29232,23.38,74252.3,9.13,4.59,5.67,0,*72
1500822080.93,29233,23.38,74250.0,9.13,4.59,5.77,0,*72
1500822082.15,29234,23.38,74252.0,9.13,4.67,5.73,0,*7C
1500822083.38,29235,23.38,74254.0,9.15,4.41,5.51,0,*7F
1500822084.56,29236,23.38,74250.8,9.13,4.33,5.37,0,*7F
1500822085.79,29237,23.38,74252.5,9.15,4.31,5.33,0,*7E
1500822086.97,29238,23.38,74254.8,9.13,4.37,5.37,0,*75
1500822088.17,29239,23.38,74258.0,9.13,4.49,5.51,0,*7D
1500822089.38,29240,23.38,74252.8,9.11,4.53,5.49,0,*73
1500822090.61,29241,23.38,74254.3,9.11,4.79,5.63,0,*72
1500822091.83,29242,23.38,74252.0,9.13,4.79,5.73,0,*72
1500822093.03,29243,23.38,74248.3,9.13,4.49,5.51,0,*70
1500822094.24,29244,23.38,74244.5,9.11,4.45,5.59,0,*71
1500822095.48,29245,23.38,74252.8,9.11,4.67,5.71,0,*7A
1500822096.71,29246,23.38,74250.5,9.11,4.89,5.93,0,*75
1500822097.91,29247,23.38,74250.5,9.11,4.57,5.63,0,*78
1500822099.14,29248,23.38,74250.0,9.11,4.75,5.71,0,*74
1500822100.35,29249,23.38,74250.0,9.13,4.85,5.85,0,*73
1500822101.55,29250,23.38,74248.8,9.13,4.97,5.95,0,*79
1500822102.81,29251,23.38,74248.3,9.11,5.01,5.85,0,*75
1500822104.04,29252,23.38,74248.5,9.13,4.97,5.89,0,*76
1500822105.27,29253,23.38,74250.0,9.11,4.89,5.81,0,*72
1500822106.5,29254,23.38,74250.5,9.11,5.11,6.13,0,*7D
1500822107.69,29255,23.31,74250.3,9.13,5.15,6.17,0,*7E
1500822108.89,29256,23.38,74254.3,9.11,5.15,6.07,0,*7E
1500822110.12,29257,23.38,74254.5,9.11,5.23,6.17,0,*7B
1500822111.32,29258,23.38,74254.5,9.13,5.37,6.17,0,*73
1500822112.52,29259,23.38,74250.0,9.13,5.27,6.33,0,*75
1500822113.69,29260,23.38,74252.5,9.13,5.37,6.21,0,*7D
1500822114.92,29261,23.38,74254.8,9.11,5.33,6.13,0,*7B
1500822116.09,29262,23.38,74258.8,9.13,5.49,6.21,0,*76
1500822117.27,29263,23.38,74256.3,9.13,5.49,6.33,0,*74
1500822118.48,29264,23.38,74252.8,9.13,5.67,6.43,0,*78
1500822119.7,29265,23.38,74256.0,9.15,5.67,6.35,0,*7E
1500822120.91,29266,23.38,74256.0,9.11,5.37,6.03,0,*79
1500822122.09,29267,23.38,74254.0,9.13,5.41,5.99,0,*7B
1500822123.31,29268,23.31,74252.3,9.15,5.51,6.03,0,*73
1500822124.51,29269,23.38,74252.3,9.13,5.55,6.11,0,*73
1500822125.69,29270,23.38,74254.8,9.13,5.67,6.21,0,*79
1500822126.91,29271,23.38,74256.3,9.13,5.77,6.35,0,*7C
1500822128.12,29272,23.38,74250.5,9.13,5.85,6.33,0,*74
1500822129.35,29273,23.38,74252.3,9.13,5.89,6.43,0,*7E
1500822130.55,29274,23.38,74252.0,9.13,5.99,6.53,0,*79
1500822131.76,29275,23.38,74252.3,9.13,5.85,6.33,0,*73
1500822133.01,29276,23.38,74254.8,9.11,5.85,6.39,0,*78
1500822134.26,29277,23.38,74254.3,9.15,5.89,6.39,0,*71
1500822135.52,29278,23.38,74252.8,9.15,5.89,6.47,0,*77
1500822136.77,29279,23.38,74252.5,9.15,5.93,6.51,0,*7A
1500822138.02,29280,23.38,74252.3,9.15,5.93,6.57,0,*7A
1500822139.25,29281,23.31,74254.8,9.15,5.99,6.51,0,*77
1500822140.5,29282,23.38,74252.5,9.15,5.89,6.51,0,*75
1500822141.74,29283,23.38,74258.3,9.17,5.89,6.51,0,*76
1500822142.94,29284,23.38,74260.5,9.17,5.71,6.47,0,*71
1500822144.14,29285,23.38,74258.3,9.17,5.29,5.81,0,*74
1500822145.37,29286,23.38,74254.0,9.15,5.19,5.81,0,*76
1500822146.59,29287,23.31,74250.5,9.15,5.23,5.93,0,*7D
1500822147.79,29288,23.31,74254.0,9.13,5.07,5.77,0,*78
1500822149.01,29289,23.38,74254.5,9.11,5.15,5.93,0,*72
1500822150.19,29290,23.38,74254.0,9.13,5.49,6.11,0,*78
1500822151.39,29291,23.38,74256.0,9.13,5.41,6.17,0,*77
1500822152.56,29292,23.38,74254.8,9.13,5.37,6.07,0,*74
1500822153.76,29293,23.38,74254.0,9.11,5.37,6.29,0,*7B
1500822155.01,29294,23.38,74256.3,9.11,5.51,6.39,0,*7D
1500822156.25,29295,23.31,74254.3,9.11,5.51,6.39,0,*7C
1500822157.46,29296,23.38,74258.8,9.13,5.63,6.47,0,*75
1500822158.66,29297,23.38,74254.0,9.13,5.67,6.53,0,*75
1500822159.86,29298,23.38,74256.3,9.13,5.67,6.53,0,*7A
1500822161.07,29299,23.38,74256.5,9.13,5.63,6.47,0,*7A
1500822162.29,29300,23.38,74256.3,9.15,5.67,6.51,0,*7E
1500822163.51,29301,23.38,74254.5,9.15,5.67,6.57,0,*79
1500822164.74,29302,23.38,74254.8,9.15,5.55,6.57,0,*7B
1500822165.96,29303,23.31,74248.5,9.15,5.59,6.57,0,*76
1500822167.2,29304,23.38,74254.8,9.15,5.55,6.51,0,*7B
1500822168.42,29305,23.38,74252.5,9.15,5.59,6.61,0,*75
1500822169.61,29306,23.38,74258.0,9.17,5.45,6.61,0,*79
1500822170.82,29307,23.38,74256.8,9.15,5.45,6.69,0,*72
1500822172.01,29308,23.38,74262.3,9.17,5.45,6.61,0,*77
1500822173.21,29309,23.31,74262.3,9.17,5.23,6.51,0,*75
1500822174.44,29310,23.38,74256.5,9.19,4.93,6.29,0,*76
1500822175.64,29311,23.38,74258.8,9.19,4.89,6.25,0,*70
1500822176.89,29312,23.31,74258.3,9.19,4.93,6.39,0,*75
1500822178.09,29313,23.38,74256.5,9.19,4.85,6.29,0,*72
1500822179.31,29314,23.31,74250.8,9.19,4.75,6.29,0,*7A
1500822180.54,29315,23.38,74252.8,9.19,4.79,6.29,0,*77
1500822181.79,29316,23.31,74248.8,9.19,4.79,6.43,0,*78
1500822183.02,29317,23.38,74248.8,9.19,4.85,6.51,0,*79
1500822184.25,29318,23.38,74248.3,9.17,4.97,6.51,0,*7B
1500822185.5,29319,23.31,74244.5,9.19,5.01,6.53,0,*78
1500822186.74,29320,23.31,74244.5,9.19,5.01,6.53,0,*72
1500822187.99,29321,23.31,74248.3,9.19,4.93,6.53,0,*79
1500822189.22,29322,23.31,74250.5,9.19,4.89,6.43,0,*70
1500822190.47,29323,23.38,74256.3,9.19,4.67,6.17,0,*70
1500822191.7,29324,23.38,74256.3,9.19,4.41,5.85,0,*7B
1500822192.92,29325,23.31,74256.3,9.19,4.23,5.85,0,*7E
1500822194.15,29326,23.31,74258.5,9.19,4.23,5.85,0,*7D
1500822195.33,29327,23.31,74258.0,9.21,4.15,5.99,0,*7F
1500822196.56,29328,23.38,74248.0,9.17,4.01,5.81,0,*79
1500822197.77,29329,23.31,74244.0,9.15,3.89,5.67,0,*75
1500822198.97,29330,23.38,74246.0,9.15,4.19,5.99,0,*72
1500822200.2,29331,23.31,74246.0,9.15,4.27,5.93,0,*74
1500822201.43,29332,23.38,74254.8,9.15,4.31,5.99,0,*7A
1500822202.68,29333,23.38,74252.5,9.15,4.63,6.35,0,*79
1500822203.86,29334,23.31,74246.0,9.13,4.33,5.95,0,*74
1500822205.07,29335,23.38,74242.3,9.13,4.33,5.89,0,*78
1500822206.27,29336,23.38,74240.8,9.13,4.23,5.85,0,*76
1500822207.46,29337,23.31,74244.8,9.13,4.37,5.99,0,*7F
1500822208.64,29338,23.31,74244.8,9.13,4.23,5.95,0,*79
1500822209.82,29339,23.31,74242.0,9.13,4.27,6.07,0,*74
1500822211.03,29340,23.38,74244.0,9.11,4.23,6.03,0,*78
1500822212.21,29341,23.38,74244.8,9.13,4.37,6.07,0,*7A
1500822213.41,29342,23.31,74242.0,9.11,4.45,6.29,0,*72
1500822214.63,29343,23.31,74244.5,9.13,4.79,6.69,0,*7A
1500822215.86,29344,23.31,74248.3,9.13,4.71,6.53,0,*7C
1500822217.1,29345,23.31,74246.3,9.11,4.79,6.61,0,*76
1500822218.31,29346,23.31,74246.0,9.11,4.89,6.83,0,*76
1500822219.53,29347,23.38,74250.5,9.11,4.81,6.73,0,*70
1500822220.75,29348,23.31,74252.0,9.11,4.93,6.83,0,*73
1500822221.98,29349,23.31,74250.3,9.11,4.81,6.65,0,*79
1500822223.18,29350,23.38,74252.5,9.13,4.81,6.65,0,*73
1500822224.37,29351,23.31,74256.3,9.13,4.85,6.69,0,*7A
1500822225.6,29352,23.38,74258.8,9.11,5.01,6.75,0,*7B
1500822226.81,29353,23.31,74262.3,9.13,5.05,6.79,0,*70
1500822227.98,29354,23.31,74260.3,9.13,5.15,6.97,0,*76
1500822229.15,29355,23.31,74262.3,9.13,5.15,6.79,0,*77
1500822230.38,29356,23.31,74254.5,9.11,4.57,6.17,0,*79
1500822231.61,29357,23.31,74256.3,9.11,4.53,6.13,0,*78
1500822232.81,29358,23.31,74250.0,9.13,4.59,6.07,0,*7A
1500822234.04,29359,23.31,74248.5,9.11,4.67,6.07,0,*74
1500822235.26,29360,23.31,74252.5,9.11,4.63,6.07,0,*7A
1500822236.5,29361,23.31,74256.5,9.13,4.93,6.35,0,*77
1500822237.72,29362,23.38,74260.3,9.11,5.11,6.39,0,*71
1500822238.98,29363,23.31,74254.5,9.11,4.93,6.13,0,*73
1500822240.2,29364,23.38,74254.0,9.11,4.81,6.13,0,*77
1500822241.43,29365,23.38,74254.3,9.11,5.01,6.29,0,*76
1500822242.69,29366,23.31,74256.3,9.11,5.05,6.17,0,*7C
1500822243.89,29367,23.38,74256.0,9.09,5.11,6.43,0,*70
1500822245.1,29368,23.31,74252.8,9.09,5.23,6.43,0,*7E
1500822246.27,29369,23.31,74254.8,9.09,5.11,6.29,0,*72
1500822247.47,29370,23.38,74256.5,9.09,5.33,6.39,0,*7B
1500822248.67,29371,23.38,74254.0,9.09,5.45,6.51,0,*75
1500822249.9,29372,23.38,74258.0,9.11,5.33,6.43,0,*7D
1500822251.13,29373,23.31,74258.0,9.11,5.49,6.39,0,*7C
1500822252.33,29374,23.31,74252.3,9.13,5.63,6.43,0,*7C
1500822253.53,29375,23.31,74254.5,9.13,5.59,6.39,0,*79
1500822254.74,29376,23.31,74254.8,9.11,5.49,6.33,0,*73
1500822255.96,29377,23.31,74258.8,9.13,5.51,6.35,0,*7F
1500822257.19,29378,23.31,74254.3,9.11,5.49,6.17,0,*7B
1500822258.36,29379,23.38,74262.5,9.13,5.49,6.21,0,*7D
1500822259.57,29380,23.31,74258.8,9.13,5.67,6.43,0,*73
1500822260.77,29381,23.31,74262.3,9.13,5.67,6.35,0,*73
1500822262.0,29382,23.31,74258.8,9.11,5.59,6.17,0,*7F
1500822263.23,29383,23.31,74262.3,9.11,5.71,6.39,0,*78
1500822264.45,29384,23.31,74256.3,9.13,5.51,6.17,0,*73
1500822265.67,29385,23.31,74262.5,9.13,5.77,6.43,0,*77
1500822266.87,29386,23.31,74262.0,9.13,5.95,6.53,0,*79
1500822268.08,29387,23.31,74262.8,9.13,5.99,6.65,0,*71
1500822269.28,29388,23.31,74258.0,9.13,5.95,6.47,0,*72
1500822270.48,29389,23.31,74256.8,9.13,5.99,6.57,0,*7E
1500822271.69,29390,23.31,74258.0,9.13,5.99,6.43,0,*73
1500822272.89,29391,23.31,74256.8,9.13,6.11,6.57,0,*74
1500822274.11,29392,23.31,74260.5,9.15,6.03,6.61,0,*77
1500822275.32,29393,23.31,74258.5,9.13,5.73,6.21,0,*70
1500822276.54,29394,23.31,74258.0,9.13,5.77,6.43,0,*77
1500822277.77,29395,23.31,74262.3,9.13,5.85,6.43,0,*7B
1500822278.97,29396,23.31,74260.8,9.13,5.55,6.11,0,*72
1500822280.16,29397,23.31,74262.3,9.13,5.37,5.89,0,*75
1500822281.36,29398,23.31,74252.8,9.13,5.29,5.73,0,*70
1500822282.55,29399,23.31,74258.3,9.13,5.29,5.77,0,*75
1500822283.74,29400,23.31,74260.5,9.13,5.55,6.07,0,*7D
1500822284.95,29401,23.31,74256.5,9.11,5.59,6.07,0,*72
1500822286.17,29402,23.31,74256.3,9.13,5.77,6.17,0,*7E
1500822287.39,29403,23.31,74258.8,9.13,5.77,6.17,0,*7F
1500822288.59,29404,23.31,74252.8,9.11,5.59,5.95,0,*7F
1500822289.79,29405,23.31,74254.0,9.13,5.41,5.89,0,*78
1500822290.97,29406,23.31,74256.3,9.13,5.63,5.95,0,*76
1500822292.18,29407,23.31,74254.8,9.11,5.59,6.03,0,*70
1500822293.43,29408,23.31,74252.0,9.11,5.73,6.13,0,*76
1500822294.68,29409,23.31,74258.0,9.11,5.73,6.17,0,*73
1500822295.88,29410,23.31,74252.8,9.11,5.71,6.07,0,*78
1500822297.11,29411,23.31,74254.8,9.11,5.73,6.07,0,*7B
1500822298.29,29412,23.31,74252.0,9.09,5.71,6.07,0,*73
1500822299.49,29413,23.31,74254.0,9.09,5.93,6.29,0,*72
1500822300.71,29414,23.31,74252.5,9.05,5.77,6.03,0,*7B
1500822301.93,29415,23.31,74254.5,9.05,5.77,6.03,0,*7A
1500822303.15,29416,23.31,74252.8,9.05,5.77,6.03,0,*79
1500822304.38,29417,23.31,74250.3,9.05,5.77,6.13,0,*79
1500822305.6,29418,23.31,74250.0,9.05,5.89,6.25,0,*72
1500822306.83,29419,23.31,74248.5,9.05,6.03,6.39,0,*7F
1500822308.06,29420,23.31,74252.8,9.05,6.03,6.39,0,*75
1500822309.29,29421,23.31,74250.3,9.09,6.13,6.51,0,*77
1500822310.52,29422,23.31,74252.3,9.09,6.17,6.53,0,*72
1500822311.76,29423,23.31,74250.5,9.05,6.13,6.57,0,*7F
1500822312.98,29424,23.31,74248.5,9.05,6.11,6.51,0,*7C
1500822314.21,29425,23.31,74252.8,9.09,6.17,6.61,0,*74
1500822315.44,29426,23.31,74250.8,9.05,6.13,6.57,0,*7A
1500822316.67,29427,23.31,74248.3,9.05,5.89,6.25,0,*7E
1500822317.9,29428,23.31,74246.8,9.09,5.85,6.39,0,*7C
1500822319.14,29429,23.31,74246.8,9.05,6.13,6.57,0,*75
1500822320.34,29430,23.31,74250.3,9.09,6.29,6.73,0,*7E
1500822321.55,29431,23.31,74252.3,9.11,6.33,6.75,0,*7B
1500822322.75,29432,23.31,74254.0,9.05,6.29,6.79,0,*7A
1500822323.97,29433,23.31,74254.5,9.05,6.47,6.79,0,*73
1500822325.2,29434,23.31,74254.8,9.09,6.43,6.73,0,*76
1500822326.43,29435,23.31,74258.5,9.09,6.43,6.73,0,*77
1500822327.63,29436,23.31,74256.3,9.09,6.39,6.75,0,*7F
1500822328.89,29437,23.31,74254.3,9.11,6.39,6.87,0,*7A
1500822330.12,29438,23.31,74252.5,9.11,6.61,7.01,0,*77
1500822331.32,29439,23.31,74256.8,9.09,6.53,6.97,0,*70
1500822332.53,29440,23.31,74258.0,9.09,6.65,6.97,0,*7B
1500822333.76,29441,23.31,74258.8,9.11,6.73,7.09,0,*72
1500822334.99,29442,23.31,74256.8,9.11,6.75,7.11,0,*7E
1500822336.2,29443,23.31,74260.3,9.13,6.75,7.15,0,*79
1500822337.42,29444,23.31,74256.8,9.11,6.75,7.11,0,*78
1500822338.63,29445,23.31,74262.5,9.09,6.83,7.11,0,*79
1500822339.86,29446,23.31,74262.0,9.11,6.75,7.11,0,*7A
1500822341.06,29447,23.31,74262.0,9.13,6.79,7.11,0,*75
1500822342.29,29448,23.31,74262.0,9.11,6.65,7.09,0,*7C
1500822343.52,29449,23.31,74260.8,9.11,6.73,7.01,0,*72
1500822344.75,29450,23.31,74258.3,9.11,6.61,6.97,0,*77
1500822345.99,29451,23.31,74256.0,9.11,6.51,6.97,0,*75
1500822347.23,29452,23.31,74260.8,9.11,6.51,6.93,0,*72
1500822348.47,29453,23.31,74258.3,9.13,6.47,6.91,0,*74
1500822349.7,29454,23.31,74258.3,9.13,6.47,6.91,0,*73
1500822350.94,29455,23.31,74258.8,9.11,6.43,6.83,0,*77
1500822352.17,29456,23.31,74256.5,9.13,6.47,6.87,0,*76
1500822353.4,29457,23.31,74256.5,9.11,6.53,6.93,0,*75
1500822354.63,29458,23.31,74256.3,9.13,6.47,6.91,0,*7F
1500822355.87,29459,23.31,74256.8,9.13,6.47,6.87,0,*79
1500822357.09,29460,23.31,74258.5,9.11,6.53,6.93,0,*71
1500822358.3,29461,23.31,74258.0,9.13,6.65,6.97,0,*73
1500822359.54,29462,23.31,74256.3,9.13,6.57,6.91,0,*77
1500822360.79,29463,23.31,74258.0,9.11,6.53,6.87,0,*77
1500822362.02,29464,23.31,74256.5,9.13,6.53,6.91,0,*75
1500822363.28,29465,23.31,74258.8,9.15,6.51,6.91,0,*70
1500822364.54,29466,23.31,74258.5,9.15,6.51,6.91,0,*73
1500822365.77,29467,23.31,74258.5,9.15,6.47,6.83,0,*76
1500822367.03,29468,23.31,74256.8,9.15,6.51,6.91,0,*7D
1500822368.23,29469,23.31,74256.3,9.13,6.47,6.79,0,*7B
1500822369.44,29470,23.31,74258.5,9.13,6.47,6.79,0,*73
1500822370.67,29471,23.31,74260.0,9.13,6.47,6.87,0,*73
1500822371.91,29472,23.31,74256.5,9.13,6.65,6.91,0,*77
1500822373.11,29473,23.31,74258.3,9.13,6.57,6.97,0,*71
1500822374.32,29474,23.31,74254.5,9.13,6.57,6.97,0,*76
1500822375.55,29475,23.31,74258.0,9.13,6.53,6.87,0,*72
1500822376.77,29476,23.31,74258.5,9.13,6.53,6.87,0,*71
1500822378.01,29477,23.31,74256.5,9.13,6.57,6.91,0,*73
1500822379.24,29478,23.31,74258.3,9.13,6.53,6.91,0,*78
1500822380.46,29479,23.31,74256.3,9.15,6.57,7.01,0,*73
1500822381.68,29480,23.31,74258.8,9.15,6.73,7.01,0,*73
1500822382.9,29481,23.31,74258.3,9.15,6.69,6.93,0,*73
1500822384.11,29482,23.31,74258.3,9.13,6.65,6.97,0,*7E
1500822385.36,29483,23.31,74260.0,9.15,6.69,6.91,0,*73
1500822386.58,29484,23.31,74262.3,9.15,6.73,7.01,0,*77
1500822387.8,29485,23.31,74262.8,9.15,6.73,7.01,0,*76
1500822389.02,29486,23.31,74260.5,9.15,6.91,7.05,0,*7D
1500822390.21,29487,23.31,74256.5,9.15,6.79,7.01,0,*7E
1500822391.44,29488,23.31,74260.5,9.15,6.73,6.93,0,*71
1500822392.63,29489,23.31,74258.0,9.15,6.83,7.05,0,*71
1500822393.83,29490,23.31,74256.8,9.15,6.93,7.09,0,*74
1500822395.05,29491,23.31,74262.0,9.15,7.01,7.15,0,*72
1500822396.25,29492,23.31,74258.8,9.15,6.93,7.09,0,*76
1500822397.44,29493,23.31,74256.8,9.15,7.01,7.09,0,*7D
1500822398.67,29494,23.31,74262.3,9.15,6.93,7.15,0,*7D
1500822399.9,29495,23.31,74256.5,9.15,6.73,6.93,0,*7D
1500822401.09,29496,23.31,74258.5,9.15,6.79,6.93,0,*74
1500822402.29,29497,23.31,74260.5,9.17,6.69,6.83,0,*77
1500822403.5,29498,23.31,74262.8,9.17,6.73,6.83,0,*73
1500822404.73,29499,23.31,74262.3,9.17,6.73,6.91,0,*71
1500822405.93,29500,23.31,74262.0,9.15,6.83,6.93,0,*7F
1500822407.15,29501,23.31,74260.5,9.15,6.73,6.83,0,*70
1500822408.35,29502,23.31,74266.3,9.15,6.79,6.83,0,*79
1500822409.55,29503,23.31,74260.0,9.17,6.73,6.93,0,*71
1500822410.79,29504,23.31,74260.3,9.17,6.73,6.91,0,*74
1500822412.03,29505,23.31,74262.3,9.15,6.61,6.73,0,*78
1500822413.28,29506,23.31,74262.3,9.15,6.61,6.69,0,*70
1500822414.5,29507,23.31,74262.5,9.15,6.79,6.91,0,*7F
1500822415.73,29508,23.31,74264.0,9.15,6.73,6.83,0,*79
1500822416.98,29509,23.31,74262.3,9.15,6.51,6.61,0,*74
1500822418.24,29510,23.31,74262.5,9.15,6.73,6.91,0,*73
1500822419.46,29511,23.31,74260.8,9.17,6.61,6.73,0,*7F
1500822420.71,29512,23.31,74260.3,9.15,6.51,6.61,0,*7E
1500822421.93,29513,23.31,74262.5,9.13,6.53,6.69,0,*73
1500822423.14,29514,23.31,74260.3,9.13,6.65,6.79,0,*70
1500822424.32,29515,23.31,74262.3,9.13,6.79,6.97,0,*7C
1500822425.52,29516,23.31,74262.3,9.13,6.87,7.01,0,*70
1500822426.74,29517,23.31,74258.3,9.11,6.87,7.01,0,*73
1500822427.94,29518,23.31,74264.0,9.13,6.91,7.01,0,*79
1500822429.14,29519,23.31,74262.8,9.13,6.87,7.01,0,*7F
1500822430.34,29520,23.31,74260.5,9.13,6.91,7.05,0,*76
1500822431.55,29521,23.31,74264.5,9.13,6.79,6.91,0,*7D
1500822432.75,29522,23.31,74260.8,9.11,6.75,6.83,0,*73
1500822433.95,29523,23.31,74260.5,9.15,6.79,6.93,0,*7B
1500822435.15,29524,23.31,74258.8,9.13,6.75,6.91,0,*74
1500822436.35,29525,23.31,74260.5,9.11,6.75,7.01,0,*7F
1500822437.53,29526,23.31,74260.3,9.13,6.75,6.97,0,*70
1500822438.7,29527,23.31,74258.8,9.13,6.79,7.05,0,*77
1500822439.88,29528,23.31,74262.3,9.13,6.79,7.05,0,*78
1500822441.08,29529,23.31,74262.5,9.13,6.87,7.05,0,*78
1500822442.28,29530,23.31,74260.3,9.13,6.87,7.05,0,*70
1500822443.48,29531,23.31,74260.0,9.11,6.83,7.01,0,*73
1500822444.68,29532,23.31,74262.3,9.11,6.93,7.09,0,*79
1500822445.89,29533,23.31,74260.8,9.13,6.97,7.15,0,*73
1500822447.1,29534,23.31,74260.5,9.13,7.05,7.15,0,*7E
1500822448.29,29535,23.31,74262.3,9.13,7.01,7.15,0,*7B
1500822449.5,29536,23.31,74258.3,9.13,7.05,7.15,0,*7C
1500822450.73,29537,23.31,74260.3,9.11,6.87,7.09,0,*79
1500822451.9,29538,23.31,74264.0,9.13,6.79,7.01,0,*7D
1500822453.1,29539,23.31,74262.5,9.11,6.75,7.01,0,*72
1500822454.3,29540,23.31,74262.3,9.13,6.87,7.01,0,*73
1500822455.5,29541,23.31,74260.3,9.11,6.75,6.93,0,*77
1500822456.73,29542,23.31,74260.3,9.13,6.57,6.87,0,*73
1500822457.97,29543,23.31,74260.5,9.11,6.51,6.75,0,*7B
1500822459.2,29544,23.31,74266.0,9.11,6.61,6.93,0,*77
1500822460.43,29545,23.31,74266.3,9.11,6.65,6.93,0,*72
1500822461.67,29546,23.31,74264.5,9.11,6.73,6.93,0,*76
1500822462.87,29547,23.31,74264.5,9.11,6.75,6.97,0,*75
1500822464.1,29548,23.31,74264.3,9.11,6.93,7.19,0,*75
1500822465.34,29549,23.31,74262.8,9.11,6.93,7.11,0,*7C
1500822466.56,29550,23.31,74264.5,9.09,7.11,7.23,0,*77
1500822467.79,29551,23.31,74264.5,9.09,7.11,7.23,0,*76
1500822469.02,29552,23.31,74262.8,9.11,7.11,7.41,0,*78
1500822470.25,29553,23.31,74264.5,9.11,7.11,7.41,0,*79
1500822471.48,29554,23.31,74264.8,9.11,7.19,7.41,0,*76
1500822472.71,29555,23.31,74266.5,9.11,7.23,7.45,0,*7A
1500822473.91,29556,23.31,74264.0,9.13,7.27,7.45,0,*7F
1500822475.15,29557,23.31,74264.3,9.11,7.23,7.45,0,*78
1500822476.37,29558,23.31,74264.3,9.13,7.23,7.47,0,*77
1500822477.58,29559,23.31,74264.3,9.13,7.23,7.45,0,*74
1500822478.78,29560,23.31,74266.3,9.13,7.23,7.45,0,*7E
1500822480.01,29561,23.31,74264.8,9.13,7.11,7.23,0,*7E
1500822481.24,29562,23.31,74264.3,9.15,7.09,7.27,0,*76
1500822482.46,29563,23.31,74266.5,9.15,7.05,7.27,0,*7B
1500822483.69,29564,23.31,74264.8,9.11,6.97,7.23,0,*76
1500822484.92,29565,23.31,74266.3,9.11,7.01,7.23,0,*79
1500822486.12,29566,23.31,74264.8,9.13,7.15,7.33,0,*7C
1500822487.32,29567,23.31,74266.0,9.13,7.15,7.33,0,*7D
1500822488.54,29568,23.31,74266.3,9.11,7.11,7.33,0,*74
1500822489.77,29569,23.31,74264.8,9.13,7.15,7.27,0,*76
1500822491.0,29570,23.31,74264.0,9.15,7.19,7.29,0,*7A
1500822492.23,29571,23.31,74264.8,9.11,7.09,7.19,0,*7D
1500822493.46,29572,23.31,74266.3,9.13,7.11,7.23,0,*7C
1500822494.68,29573,23.31,74264.5,9.11,7.01,7.11,0,*7F
1500822495.91,29574,23.31,74264.3,9.13,7.11,7.23,0,*7A
1500822497.13,29575,23.31,74264.5,9.13,7.15,7.23,0,*7F
1500822498.36,29576,23.31,74264.3,9.13,7.11,7.27,0,*7C
1500822499.6,29577,23.31,74266.5,9.11,7.09,7.19,0,*7B
1500822500.82,29578,23.31,74264.0,9.13,7.15,7.23,0,*72
1500822502.05,29579,23.31,74264.8,9.13,7.11,7.23,0,*77
1500822503.25,29580,23.31,74264.0,9.11,7.29,7.33,0,*79
1500822504.46,29581,23.31,74266.8,9.15,7.29,7.41,0,*79
1500822505.65,29582,23.31,74260.5,9.13,7.37,7.47,0,*75
1500822506.83,29583,23.31,74264.3,9.13,7.37,7.55,0,*77
1500822508.04,29584,23.31,74264.0,9.15,7.29,7.37,0,*7D
1500822509.24,29585,23.31,74266.0,9.15,7.29,7.51,0,*7C
1500822510.45,29586,23.31,74264.0,9.17,7.27,7.37,0,*73
1500822511.68,29587,23.31,74266.8,9.15,7.05,7.19,0,*7C
1500822512.9,29588,23.31,74264.3,9.15,6.91,7.09,0,*7E
1500822514.15,29589,23.31,74264.5,9.15,6.69,6.91,0,*78
1500822515.4,29590,23.31,74266.0,9.15,6.61,6.91,0,*78
1500822516.63,29591,23.31,74266.3,9.15,6.57,6.83,0,*7F
1500822517.85,29592,23.31,74266.5,9.15,6.61,6.93,0,*78
1500822519.07,29593,23.31,74262.8,9.15,6.73,7.05,0,*74
1500822520.25,29594,23.31,74264.8,9.13,6.79,7.05,0,*7F
1500822521.45,29595,23.31,74266.3,9.13,6.69,6.97,0,*75
1500822522.68,29596,23.31,74266.3,9.11,6.73,7.01,0,*71
1500822523.88,29597,23.31,74266.0,9.11,6.75,7.09,0,*7E
1500822525.1,29598,23.31,74266.0,9.11,6.69,7.05,0,*70
1500822526.3,29599,23.31,74266.3,9.13,6.65,7.01,0,*7B
1500822527.48,29600,23.31,74264.3,9.13,6.75,7.01,0,*79
1500822528.68,29601,23.31,74264.8,9.13,6.47,6.79,0,*77
1500822529.93,29602,23.31,74264.0,9.11,6.53,6.87,0,*72
1500822531.14,29603,23.31,74266.5,9.13,6.65,7.01,0,*7B